211  
ASUS46 KPQR 190310  
RWROR  
 
OREGON REGIONAL WEATHER ROUNDUP  
NATIONAL WEATHER SERVICE PORTLAND OR  
800 PM PDT FRI SEP 18 2020  
 
NOTE: "FAIR" INDICATES FEW OR NO CLOUDS BELOW 12,000 FEET WITH  
NO SIGNIFICANT WEATHER AND/OR S TO VISIBILITY
.  
 
ORZ001>013-190400-  
NORTHWEST OREGON  
 
 
CITY SKY/WX TMP DP RH WIND PRES REMARKS
 
ASTORIA CLOUDY 59 57 93 SW8 29.95R  
TILLAMOOK CLOUDY 61 59 94 CALM 29.99R  
NEWPORT CLOUDY 59 59 100 CALM 30.01S FOG  
FLORENCE MOCLDY 61 60 97 CALM 29.98S  
PORTLAND MOCLDY 62 58 86 SE3 29.98S  
VANCOUVER WA CLOUDY 62 56 80 SE3 29.97S  
SCAPPOOSE CLOUDY 61 58 90 SE3 29.96S  
HILLSBORO LGT RAIN 60 59 96 S7 29.98R  
AURORA CLOUDY 62 58 86 CALM 29.99R  
MCMINNVILLE MOCLDY 61 60 97 CALM 29.97R  
SALEM MOCLDY 60 57 89 S5 29.97R  
CORVALLIS MOCLDY 61 61 100 CALM 30.00S  
EUGENE MOCLDY 60 57 89 SE5 29.99S  
CRESWELL MOCLDY 61 61 100 S3 29.99S  

 
 
ORZ021-028-190400-  
SOUTHWEST OREGON  
 
 
CITY SKY/WX TMP DP RH WIND PRES REMARKS
 
NORTH BEND LGT RAIN 63 61 93 CALM 29.98R  
BROOKINGS CLOUDY 61 61 100 SE7 30.00S  
ROSEBURG LGT RAIN 64 59 83 CALM 29.99R  
SEXTON SUMMIT MOCLDY 52 48 86 W6 30.04R  
GRANTS PASS MOCLDY 66 52 59 CALM 30.01R  
MEDFORD PTCLDY 68 50 52 NW8 29.97R  

 
 
ORZ014>016-041-190400-  
COLUMBIA GORGE  
 
 
CITY SKY/WX TMP DP RH WIND PRES REMARKS
 
TROUTDALE MOCLDY 60 56 86 CALM 29.98R  
HOOD RIVER MOCLDY 61 52 72 W5 29.95R  
THE DALLES MOCLDY 64 51 62 NW15 29.91S  

 
 
ORZ029>031-041-044-049-050-061>064-502-503-505>511-190400-  
EASTERN OREGON  
 
 
CITY SKY/WX TMP DP RH WIND PRES REMARKS
 
MADRAS NOT AVBL  
REDMOND MOCLDY 52 45 77 CALM 30.01R  
BEND MOCLDY 52 48 87 SE6 30.03R  
PRINEVILLE N/A 50 48 93 S5 30.01S  
KLAMATH FALLS CLOUDY 58 42 55 W8 30.01R  
LAKEVIEW MOCLDY 54 38 54 W6 30.02R  
HERMISTON MOCLDY 69 52 54 SW21G28 29.85R HAZE  
PENDLETON CLOUDY 66 51 58 W18G28 29.90R HAZE  
JOHN DAY N/A 59 53 80 W6 29.96R HAZE  
MEACHAM CLOUDY 60 46 59 CALM 30.00R HAZE  
LA GRANDE MOCLDY 67 46 47 W18G26 29.92R HAZE  
BAKER CITY CLOUDY 64 38 38 NW7 29.92R HAZE  
BURNS MOCLDY 63 42 46 NW13 29.94R HAZE  
ROME N/A 68 46 45 S23G41 29.90R  
ONTARIO CLOUDY 64 46 52 N7 29.90R HAZE  

 
 
OTHER REGIONAL REPORTS  
 
CITY SKY/WX TMP DP RH WIND PRES REMARKS
 
SEATTLE CLOUDY 64 61 90 SE7 29.93R FOG  
SPOKANE CLOUDY 68 45 43 SW3 29.89R SMOKE  
VANCOUVER BC CLOUDY 63 59 88 SE7 29.88R SMOKE  
PRINCE GEORGE LGT RAIN 50 50 100 S2 29.78S VSB 1  
DAWSON CREEK CLEAR 57 50 77 SW3 29.73S  
WHITEHORSE MOCLDY 54 34 47 S14G22 29.65R  
BOISE CLOUDY 69 46 43 E22G36 29.91F  
REDDING PTCLDY 74 52 46 S5 29.89R  
SAN FRANCISCO MOCLDY 65 60 84 NW6 29.97S  
 

 
 
 
 
CLICK HERE TO GO TO PREVIOUS BULLETINS.

The Nexlab OR Page Main Text Page